DW8700 Weather Reports


time (UTC)temp
C
wind
direction
speed
KPH
gust
KPH
rain 1hr
cm
rain 24hr
cm
rain mn
cm
humidity
%
barometer
mb
20260505170001 13 150 0.0 0.0 0.00 0.00 0.00 80 1015.5
20260505165600 13 153 0.0 0.0 0.00 0.00 0.00 81 1015.5
20260505165100 13 151 0.0 0.0 0.00 0.00 0.00 80 1015.4
20260505164559 13 140 0.0 0.0 0.00 0.00 0.00 82 1015.3
20260505164059 13 140 0.0 0.0 0.00 0.00 0.00 83 1015.2
20260505163557 12 140 0.0 0.0 0.00 0.00 0.00 84 1015.1
20260505163055 12 140 0.0 0.0 0.00 0.00 0.00 85 1015.1
20260505162553 12 140 0.0 0.0 0.00 0.00 0.00 84 1015.2
20260505162052 12 140 0.0 0.0 0.00 0.00 0.00 85 1015.2
20260505161558 12 140 0.0 0.0 0.00 0.00 0.00 86 1015.2
20260505161049 12 140 0.0 0.0 0.00 0.00 0.00 87 1015.2
20260505160552 12 140 0.0 0.0 0.00 0.00 0.00 87 1015.1
20260505153053 11 133 0.0 0.0 0.00 0.00 0.00 89 1015.2
20260505152540 11 133 0.0 0.0 0.00 0.00 0.00 90 1015.1
20260505152042 11 133 0.0 0.0 0.00 0.00 0.00 90 1015.0
20260505151545 11 133 0.0 0.0 0.00 0.00 0.00 90 1015.0
20260505151037 11 133 0.0 0.0 0.00 0.00 0.00 90 1014.8
20260505150536 11 244 0.0 0.0 0.00 0.00 0.00 90 1015.0
20260505140530 10 244 0.0 0.0 0.00 0.00 0.00 92 1014.4
20260505125022 10 229 0.0 0.0 0.00 0.00 0.00 89 1014.1
20260505124522 10 229 0.0 0.0 0.00 0.00 0.00 89 1014.1
20260505124021 10 229 0.0 0.0 0.00 0.00 0.00 89 1014.2
20260505123521 10 229 0.0 0.0 0.00 0.00 0.00 89 1014.2
20260505123023 10 229 0.0 0.0 0.00 0.00 0.00 89 1014.3
20260505122520 10 229 0.0 0.0 0.00 0.00 0.00 89 1014.3
20260505122020 10 229 0.0 0.0 0.00 0.00 0.00 89 1014.3
20260505121521 10 229 0.0 0.0 0.00 0.00 0.00 89 1014.3
20260505121020 10 229 0.0 0.0 0.00 0.00 0.00 89 1014.3
20260505120523 10 229 0.0 0.0 0.00 0.00 0.00 89 1014.3
20260505120027 10 229 0.0 0.0 0.00 0.00 0.00 89 1014.3
20260505115519 10 229 0.0 0.0 0.00 0.00 0.00 89 1014.4
20260505115020 10 229 0.0 0.0 0.00 0.00 0.00 90 1014.3
20260505114520 10 229 0.0 0.0 0.00 0.00 0.00 90 1014.2
20260505114019 10 229 0.0 0.0 0.00 0.00 0.00 90 1014.2
20260505113518 10 229 0.0 0.0 0.00 0.00 0.00 90 1014.3
20260505113028 10 229 0.0 0.0 0.00 0.00 0.00 90 1014.2
20260505112518 10 229 0.0 0.0 0.00 0.00 0.00 89 1014.3
20260505112020 10 229 0.0 0.0 0.00 0.00 0.00 89 1014.3
20260505111527 10 229 0.0 0.0 0.00 0.00 0.00 89 1014.2
20260505111018 10 229 0.0 0.0 0.00 0.00 0.00 89 1014.2
20260505110517 10 229 0.0 0.0 0.00 0.00 0.00 89 1014.2
20260505102018 10 229 0.0 0.0 0.00 0.00 0.00 90 1014.2
20260505101515 10 229 0.0 0.0 0.00 0.00 0.00 90 1014.1
20260505101019 10 229 0.0 0.0 0.00 0.00 0.00 90 1014.1
20260505100515 10 229 0.0 0.0 0.00 0.00 0.00 90 1014.2
20260505100014 10 229 0.0 0.0 0.00 0.00 0.00 91 1014.2
20260505095513 10 229 0.0 0.0 0.00 0.00 0.00 91 1014.3
20260505095013 10 229 0.0 0.0 0.00 0.00 0.00 91 1014.4
20260505094513 10 229 0.0 0.0 0.00 0.00 0.00 91 1014.4
20260505094017 10 229 0.0 0.0 0.00 0.00 0.00 91 1014.3
20260505093514 10 229 0.0 0.0 0.00 0.00 0.00 91 1014.4
20260505093012 10 229 0.0 0.0 0.00 0.00 0.00 91 1014.4
20260505092513 10 229 0.0 0.0 0.00 0.00 0.00 92 1014.4
20260505092011 10 229 0.0 0.0 0.00 0.00 0.00 92 1014.5
20260505091510 10 229 0.0 0.0 0.00 0.00 0.00 92 1014.6
20260505091011 10 229 0.0 0.0 0.00 0.00 0.00 91 1014.6
20260505090511 10 229 0.0 0.0 0.00 0.00 0.00 91 1014.7
20260505090009 10 229 0.0 0.0 0.00 0.00 0.00 91 1014.8
20260505085509 10 229 0.0 0.0 0.00 0.00 0.00 91 1014.8
20260505085012 10 229 0.0 0.0 0.00 0.00 0.00 91 1014.7
20260505084516 10 229 0.0 0.0 0.00 0.00 0.00 91 1014.8
20260505084010 10 229 0.0 0.0 0.00 0.00 0.00 91 1014.7
20260505083508 10 229 0.0 0.0 0.00 0.00 0.00 91 1014.7
20260505083014 10 229 0.0 0.0 0.00 0.00 0.00 91 1014.8
20260505082507 10 229 0.0 0.0 0.00 0.00 0.00 91 1014.8
20260505082009 10 229 0.0 0.0 0.00 0.00 0.00 91 1014.8
20260505081507 10 229 0.0 0.0 0.00 0.00 0.00 91 1014.9
20260505081011 10 229 0.0 0.0 0.00 0.00 0.00 91 1015.0
20260505080510 10 229 0.0 0.0 0.00 0.00 0.00 91 1015.0
20260505080025 10 229 0.0 0.0 0.00 0.00 0.00 90 1015.0
20260505075505 10 229 0.0 0.0 0.00 0.00 0.00 90 1015.0
20260505075007 10 229 0.0 0.0 0.00 0.00 0.00 90 1015.0
20260505074505 10 229 0.0 0.0 0.00 0.00 0.00 90 1015.0
20260505074005 10 229 0.0 0.0 0.00 0.00 0.00 90 1015.0
20260505073504 10 229 0.0 0.0 0.00 0.00 0.00 90 1014.9
20260505073004 10 229 0.0 0.0 0.00 0.00 0.00 89 1014.9
20260505072502 10 229 0.0 0.0 0.00 0.00 0.00 89 1014.8
20260505072002 10 229 0.0 0.0 0.00 0.00 0.00 89 1014.8
20260505071502 10 229 0.0 0.0 0.00 0.00 0.00 89 1014.7
20260505071001 10 229 0.0 0.0 0.00 0.00 0.00 88 1014.7
20260505070601 10 229 0.0 0.0 0.00 0.00 0.00 88 1014.7
20260505070100 10 229 0.0 0.0 0.00 0.00 0.00 88 1014.8
20260505065600 10 229 0.0 0.0 0.00 0.00 0.00 87 1014.8
20260505065101 11 229 0.0 0.0 0.00 0.00 0.00 87 1014.8
20260505064604 11 229 0.0 0.0 0.00 0.00 0.00 87 1014.7
20260505064059 11 229 0.0 0.0 0.00 0.00 0.00 86 1014.6
20260505063559 11 229 0.0 0.0 0.00 0.00 0.00 86 1014.6
20260505063059 11 229 0.0 0.0 0.00 0.00 0.00 86 1014.5
20260505062559 11 229 0.0 0.0 0.00 0.00 0.00 86 1014.5
20260505062058 11 229 0.0 0.0 0.00 0.00 0.00 87 1014.4
20260505061558 11 229 0.0 0.0 0.00 0.00 0.00 87 1014.5
20260505061058 11 229 0.0 0.0 0.00 0.00 0.00 87 1014.5
20260505060558 11 229 0.0 0.0 0.00 0.00 0.00 87 1014.5
20260505055558 11 229 0.0 0.0 0.00 0.00 0.00 87 1014.6
20260505055101 11 229 0.0 0.0 0.00 0.00 0.00 87 1014.5
20260505054605 11 229 0.0 0.0 0.00 0.00 0.00 86 1014.6
20260505054058 11 230 0.0 0.0 0.00 0.00 0.00 86 1014.7
20260505053557 11 230 0.0 0.0 0.00 0.00 0.00 86 1014.7
20260505053111 11 230 0.0 0.0 0.00 0.00 0.00 86 1014.8
20260505052557 11 230 0.0 0.0 0.00 0.00 0.00 85 1014.9
20260505052057 11 230 0.0 0.0 0.00 0.00 0.00 85 1014.9
20260505051557 11 230 0.0 0.0 0.00 0.00 0.00 85 1014.9
20260505051059 11 230 0.0 0.0 0.00 0.00 0.00 84 1015.0
20260505050556 11 230 0.0 0.0 0.00 0.00 0.00 84 1014.9
20260505041613 12 230 0.0 0.0 0.00 0.00 0.00 80 1014.5
20260505041055 12 230 0.0 0.0 0.00 0.00 0.00 79 1014.4
20260505040555 12 230 0.0 0.0 0.00 0.00 0.00 79 1014.3
20260505040055 13 229 0.0 0.0 0.00 0.00 0.00 78 1014.2
20260505035554 13 228 0.0 0.0 0.00 0.00 0.00 78 1014.1
20260505035057 13 228 0.0 0.0 0.00 0.00 0.00 77 1014.1
20260505034558 13 228 0.0 0.0 0.00 0.00 0.00 77 1014.0
20260505034056 13 228 0.0 0.0 0.00 0.00 0.00 76 1013.9
20260505033555 13 228 0.0 0.0 0.00 0.00 0.00 76 1013.9
20260505033054 13 228 0.0 0.0 0.00 0.00 0.00 76 1013.8
20260505032557 13 229 0.0 0.0 0.00 0.00 0.00 75 1013.7
20260505032054 14 229 0.0 0.0 0.00 0.00 0.00 73 1013.8
20260505031601 14 229 0.0 0.0 0.00 0.00 0.00 72 1013.9
20260505031057 14 229 0.0 0.0 0.00 0.00 0.00 72 1013.9
20260505030553 14 229 0.0 0.0 0.00 0.00 0.00 70 1013.9
20260505030053 14 229 0.0 0.0 0.00 0.00 0.00 70 1013.9
20260505025553 15 229 0.0 0.0 0.00 0.00 0.00 70 1013.8
20260505025056 15 229 0.0 0.0 0.00 0.00 0.00 69 1013.8
20260505024552 15 229 0.0 0.0 0.00 0.00 0.00 69 1013.8
20260505024052 15 229 0.0 0.0 0.00 0.00 0.00 67 1013.9
20260505023552 15 229 0.0 0.0 0.00 0.00 0.00 66 1013.8
20260505023100 15 224 0.0 0.0 0.00 0.00 0.00 66 1013.8
20260505022551 15 224 0.0 0.0 0.00 0.00 0.00 64 1013.7
20260505022051 15 224 0.0 0.0 0.00 0.00 0.00 64 1013.7
20260505021552 15 224 0.0 0.0 0.00 0.00 0.00 64 1013.7
20260505021051 15 224 0.0 0.0 0.00 0.00 0.00 62 1013.7
20260505020551 16 232 0.0 0.0 0.00 0.00 0.00 61 1013.6
20260505020052 16 229 0.0 0.0 0.00 0.00 0.00 61 1013.7
20260505015555 16 192 0.0 0.0 0.00 0.00 0.00 62 1013.6
20260505015051 16 179 0.0 0.0 0.00 0.00 0.00 60 1013.6
20260505014551 16 254 0.0 0.0 0.00 0.00 0.00 61 1013.6
20260505014050 16 216 0.0 0.0 0.00 0.00 0.00 62 1013.7
20260505013549 16 238 0.0 0.0 0.00 0.00 0.00 61 1013.8
20260505013049 16 240 0.0 0.0 0.00 0.00 0.00 61 1013.8
20260505012548 16 249 0.0 0.0 0.00 0.00 0.00 62 1013.9
20260505012049 16 242 0.0 0.0 0.00 0.00 0.00 60 1013.9
20260505011549 17 205 0.0 0.0 0.00 0.00 0.00 60 1013.9
20260505011053 17 223 0.0 0.0 0.00 0.00 0.00 59 1014.0
20260505010548 17 223 0.0 0.0 0.00 0.00 0.00 60 1014.1
20260505010048 17 224 0.0 0.0 0.00 0.00 0.00 61 1014.1
20260505005548 17 91 0.0 0.0 0.00 0.00 0.00 60 1014.1
20260505005048 17 93 0.0 0.0 0.00 0.00 0.00 59 1014.1
20260505004548 17 166 0.0 0.0 0.00 0.00 0.00 59 1014.2
20260505004047 17 108 0.0 0.0 0.00 0.00 0.00 61 1014.1
20260505003547 17 129 0.0 0.0 0.00 0.00 0.00 58 1014.1
20260505003047 17 153 0.0 0.0 0.00 0.00 0.00 58 1014.1
20260505002550 18 75 0.0 0.0 0.00 0.00 0.00 56 1014.1
20260505002049 18 162 0.0 0.0 0.00 0.00 0.00 56 1014.1
20260505001552 18 300 0.0 1.6 0.00 0.00 0.00 56 1014.1
20260505001046 18 106 0.0 1.6 0.00 0.00 0.00 55 1014.0
20260505000546 18 111 0.0 0.0 0.00 0.00 0.00 56 1013.9
20260505000053 18 88 0.0 0.0 0.00 0.00 0.00 55 1014.0
20260504235546 18 142 0.0 0.0 0.00 0.00 0.00 56 1014.0
20260504235048 18 245 0.0 0.0 0.00 0.00 0.00 54 1013.9
20260504234554 18 123 0.0 0.0 0.00 0.00 0.00 57 1014.0
20260504234045 18 138 0.0 0.0 0.00 0.00 0.00 54 1014.0
20260504233545 18 111 0.0 0.0 0.00 0.00 0.00 54 1014.1
20260504233045 18 281 0.0 0.0 0.00 0.00 0.00 56 1014.0
20260504232544 18 202 0.0 0.0 0.00 0.00 0.00 59 1014.0
20260504232044 18 144 0.0 0.0 0.00 0.00 0.00 60 1014.0
20260504231557 18 66 0.0 0.0 0.00 0.00 0.00 59 1014.0
20260504231043 18 155 0.0 0.0 0.00 0.00 0.00 60 1014.1
20260504230543 18 91 0.0 0.0 0.00 0.00 0.00 60 1014.0
20260504230043 18 88 0.0 0.0 0.00 0.00 0.00 60 1014.0
20260504225542 18 107 0.0 0.0 0.00 0.00 0.00 59 1014.1
20260504225042 18 82 0.0 0.0 0.00 0.00 0.00 57 1014.1
20260504224543 18 34 0.0 0.0 0.00 0.00 0.00 58 1014.0
20260504224042 18 55 0.0 0.0 0.00 0.00 0.00 56 1014.1
20260504223542 18 265 0.0 0.0 0.00 0.00 0.00 57 1014.2
20260504223041 18 224 0.0 0.0 0.00 0.00 0.00 58 1014.2
20260504222540 18 262 0.0 0.0 0.00 0.00 0.00 61 1014.2
20260504222038 18 240 0.0 0.0 0.00 0.00 0.00 57 1014.3
20260504221540 18 251 0.0 0.0 0.00 0.00 0.00 57 1014.4
20260504221037 18 236 0.0 0.0 0.00 0.00 0.00 60 1014.5
20260504220536 18 194 0.0 0.0 0.00 0.00 0.00 63 1014.6
20260504220036 17 245 0.0 0.0 0.00 0.00 0.00 64 1014.6
20260504215535 16 229 0.0 0.0 0.00 0.00 0.00 65 1014.7
20260504215036 16 217 0.0 0.0 0.00 0.00 0.00 65 1014.8
20260504214534 16 203 0.0 0.0 0.00 0.00 0.00 66 1014.9
20260504214033 16 157 0.0 0.0 0.00 0.00 0.00 68 1014.8
20260504213533 16 71 0.0 0.0 0.00 0.00 0.00 69 1014.7
20260504213033 16 109 0.0 0.0 0.00 0.00 0.00 68 1014.8
20260504212533 16 260 0.0 0.0 0.00 0.00 0.00 68 1014.8
20260504212033 16 240 0.0 0.0 0.00 0.00 0.00 67 1014.9
20260504211534 17 182 0.0 0.0 0.00 0.00 0.00 69 1015.0
20260504211032 16 173 0.0 0.0 0.00 0.00 0.00 67 1015.0
20260504210532 16 204 0.0 0.0 0.00 0.00 0.00 67 1015.1
20260504210050 16 196 0.0 0.0 0.00 0.00 0.00 69 1015.0
20260504205532 16 220 0.0 0.0 0.00 0.00 0.00 67 1015.1
20260504205032 16 186 0.0 0.0 0.00 0.00 0.00 68 1015.0
20260504204534 16 190 0.0 0.0 0.00 0.00 0.00 72 1015.0
20260504204031 16 234 0.0 0.0 0.00 0.00 0.00 73 1015.0
20260504203531 16 263 0.0 0.0 0.00 0.00 0.00 73 1015.1
20260504203034 16 211 0.0 0.0 0.00 0.00 0.00 74 1015.2
20260504202531 15 123 0.0 0.0 0.00 0.00 0.00 73 1015.2
20260504202030 15 187 0.0 0.0 0.00 0.00 0.00 74 1015.2
20260504201530 15 182 0.0 0.0 0.00 0.00 0.00 75 1015.2
20260504201030 15 171 0.0 0.0 0.00 0.00 0.00 75 1015.2
20260504200530 15 64 0.0 0.0 0.00 0.00 0.00 77 1015.3
20260504200032 15 124 0.0 0.0 0.00 0.00 0.00 77 1015.3
20260504195529 15 98 0.0 0.0 0.00 0.00 0.00 78 1015.3
20260504195029 15 95 0.0 0.0 0.00 0.00 0.00 79 1015.4
20260504194543 15 102 0.0 0.0 0.00 0.00 0.00 78 1015.3
20260504194029 15 110 0.0 0.0 0.00 0.00 0.00 79 1015.4
20260504193529 15 112 0.0 0.0 0.00 0.00 0.00 77 1015.4
20260504193031 15 186 0.0 0.0 0.00 0.00 0.00 78 1015.4
20260504192528 15 254 0.0 0.0 0.00 0.00 0.00 76 1015.4
20260504192029 15 213 0.0 0.0 0.00 0.00 0.00 75 1015.4
20260504191537 15 248 0.0 0.0 0.00 0.00 0.00 75 1015.4
20260504191028 15 248 0.0 0.0 0.00 0.00 0.00 75 1015.4
20260504190527 16 257 0.0 0.0 0.00 0.00 0.00 74 1015.4
20260504190032 16 212 0.0 0.0 0.00 0.00 0.00 73 1015.4
20260504185532 16 155 0.0 0.0 0.00 0.00 0.00 74 1015.3
20260504185031 16 117 0.0 0.0 0.00 0.00 0.00 75 1015.4
20260504184536 16 130 0.0 0.0 0.00 0.00 0.00 71 1015.4
20260504184028 16 91 0.0 0.0 0.00 0.00 0.00 72 1015.4
20260504183530 16 121 0.0 0.0 0.00 0.00 0.00 72 1015.4
20260504183027 16 138 0.0 0.0 0.00 0.00 0.00 73 1015.4
20260504182527 16 98 0.0 0.0 0.00 0.00 0.00 74 1015.4
20260504182026 16 99 0.0 0.0 0.00 0.00 0.00 74 1015.3
20260504181526 15 103 0.0 0.0 0.00 0.00 0.00 76 1015.3
20260504181026 15 59 0.0 0.0 0.00 0.00 0.00 74 1015.3
20260504180526 16 69 0.0 0.0 0.00 0.00 0.00 74 1015.3
20260504180028 16 57 0.0 0.0 0.00 0.00 0.00 72 1015.2
20260504175524 16 130 0.0 0.0 0.00 0.00 0.00 72 1015.1
20260504175025 16 145 0.0 0.0 0.00 0.00 0.00 71 1015.0
20260504174525 17 61 0.0 0.0 0.00 0.00 0.00 69 1014.9
20260504174025 17 243 0.0 0.0 0.00 0.00 0.00 68 1014.9
20260504173524 17 88 0.0 0.0 0.00 0.00 0.00 71 1014.8
20260504173022 16 27 0.0 0.0 0.00 0.00 0.00 74 1014.8
20260504172520 16 197 0.0 0.0 0.00 0.00 0.00 76 1014.9
20260504172019 15 105 0.0 0.0 0.00 0.00 0.00 76 1014.8
20260504171518 15 262 0.0 0.0 0.00 0.00 0.00 77 1014.9
20260504171018 15 231 0.0 0.0 0.00 0.00 0.00 74 1014.8
20260504170517 15 133 0.0 0.0 0.00 0.00 0.00 77 1014.8